FW9813 Weather Reports


Display with metric or nautical units.
time (UTC)temp
F
wind
direction
speed
MPH
gust
MPH
rain 1hr
in
rain 24hr
in
rain mn
in
humidity
%
barometer
mb
20260509060039 47 0 0.0 2.0 0.00 0.00 0.00 58 1002.2
20260509054548 48 0 0.0 0.0 0.00 0.00 0.00 57 1001.8
20260509053049 48 0 0.0 0.0 0.00 0.00 0.00 53 1002.1
20260509051545 49 0 0.0 0.0 0.00 0.00 0.00 51 1002.4
20260509050041 49 0 0.0 0.0 0.00 0.00 0.00 49 1002.9
20260509044538 50 0 0.0 0.0 0.00 0.00 0.00 48 1002.5
20260509043052 52 0 0.0 0.0 0.00 0.00 0.00 44 1002.9
20260509041540 53 0 0.0 0.0 0.00 0.00 0.00 41 1003.0
20260509040042 55 0 0.0 0.0 0.00 0.00 0.00 38 1003.1
20260509034540 56 203 0.0 5.0 0.00 0.00 0.00 36 1003.2
20260509033046 57 0 1.0 4.0 0.00 0.00 0.00 35 1003.1
20260509031547 57 209 0.0 3.0 0.00 0.00 0.00 34 1003.0
20260509030043 59 201 1.0 5.0 0.00 0.00 0.00 33 1003.0
20260509024541 59 175 4.0 10.0 0.00 0.00 0.00 32 1002.9
20260509023041 60 201 5.0 12.0 0.00 0.00 0.00 31 1002.9
20260509021537 61 181 4.0 12.0 0.00 0.00 0.00 31 1002.7
20260509020037 62 186 5.0 15.0 0.00 0.00 0.00 31 1002.5
20260509014543 63 206 8.0 17.0 0.00 0.00 0.00 31 1002.3
20260509013058 64 218 6.0 15.0 0.00 0.00 0.00 31 1001.8
20260509011542 65 163 4.0 19.0 0.00 0.00 0.00 30 1001.5
20260509010037 66 212 5.0 19.0 0.00 0.00 0.00 27 1001.4
20260509004559 67 196 4.0 16.0 0.00 0.00 0.00 27 1001.2
20260509003051 68 191 7.0 18.0 0.00 0.00 0.00 25 1001.2
20260509001544 69 209 6.0 16.0 0.00 0.00 0.00 24 1001.1
20260509000042 69 200 7.0 17.0 0.00 0.00 0.00 24 1001.1
20260508234541 69 143 4.0 13.0 0.00 0.00 0.00 24 1001.1
20260508233056 70 269 9.0 17.0 0.00 0.00 0.00 23 1001.2
20260508231544 70 229 3.0 12.0 0.00 0.00 0.00 25 1001.2
20260508230055 70 202 4.0 11.0 0.00 0.00 0.00 25 1001.3
20260508224544 70 171 3.0 13.0 0.00 0.00 0.00 27 1001.2
20260508223041 69 144 2.0 9.0 0.00 0.00 0.00 27 1001.4
20260508221543 70 131 3.0 10.0 0.00 0.00 0.00 27 1001.4
20260508220046 70 231 3.0 9.0 0.00 0.00 0.00 26 1001.6
20260508214537 70 201 6.0 14.0 0.00 0.00 0.00 25 1001.8
20260508213043 70 213 3.0 11.0 0.00 0.00 0.00 26 1001.8
20260508211543 69 237 4.0 10.0 0.00 0.00 0.00 26 1001.9
20260508210057 70 176 4.0 10.0 0.00 0.00 0.00 27 1002.2
20260508204541 71 124 5.0 13.0 0.00 0.00 0.00 26 1002.4
20260508203037 71 153 4.0 12.0 0.00 0.00 0.00 25 1002.5
20260508201546 70 204 4.0 15.0 0.00 0.00 0.00 26 1002.9
20260508200048 70 219 3.0 13.0 0.00 0.00 0.00 28 1003.0
20260508194547 70 139 4.0 11.0 0.00 0.00 0.00 26 1003.3
20260508193047 70 207 2.0 9.0 0.00 0.00 0.00 28 1003.5
20260508191543 69 273 3.0 8.0 0.00 0.00 0.00 27 1003.8
20260508190049 69 164 4.0 9.0 0.00 0.00 0.00 27 1004.0
20260508184555 67 229 5.0 11.0 0.00 0.00 0.00 27 1004.2
20260508183047 67 187 2.0 7.0 0.00 0.00 0.00 27 1004.4
20260508181557 67 156 2.0 12.0 0.00 0.00 0.00 29 1004.5
20260508180039 66 199 4.0 12.0 0.00 0.00 0.00 28 1004.6
20260508174543 65 0 5.0 12.0 0.00 0.00 0.00 28 1005.0
20260508173048 65 239 4.0 10.0 0.00 0.00 0.00 28 1005.2
20260508171544 65 214 6.0 12.0 0.00 0.00 0.00 28 1005.6
20260508170044 64 175 5.0 13.0 0.00 0.00 0.00 30 1005.7
20260508164554 64 178 3.0 9.0 0.00 0.00 0.00 32 1005.9
20260508163040 63 128 2.0 8.0 0.00 0.00 0.00 34 1005.9
20260508161547 61 194 2.0 5.0 0.00 0.00 0.00 38 1006.1
20260508160037 60 182 2.0 6.0 0.00 0.00 0.00 41 1006.2
20260508154546 58 102 1.0 4.0 0.00 0.00 0.00 46 1006.4
20260508153043 56 164 1.0 4.0 0.00 0.00 0.00 44 1006.6
20260508151544 55 198 0.0 6.0 0.00 0.00 0.00 45 1006.8
20260508150052 54 183 1.0 7.0 0.00 0.00 0.00 45 1006.9
20260508144551 54 116 0.0 4.0 0.00 0.00 0.00 47 1007.0
20260508143045 53 124 0.0 5.0 0.00 0.00 0.00 46 1007.2
20260508141551 51 125 1.0 4.0 0.00 0.00 0.00 49 1007.3
20260508140048 50 183 0.0 2.0 0.00 0.00 0.00 52 1007.5
20260508134541 50 0 0.0 3.0 0.00 0.00 0.00 54 1007.6
20260508133104 49 0 0.0 3.0 0.00 0.00 0.00 54 1007.7
20260508131538 48 0 0.0 2.0 0.00 0.00 0.00 55 1007.8
20260508130043 47 0 0.0 0.0 0.00 0.00 0.00 61 1007.8
20260508124541 45 0 0.0 1.0 0.00 0.00 0.00 67 1007.9
20260508123052 41 0 0.0 0.0 0.00 0.00 0.00 78 1007.9
20260508121538 37 0 0.0 0.0 0.00 0.00 0.00 85 1007.8
20260508120052 34 0 0.0 0.0 0.00 0.00 0.00 83 1007.7
20260508114544 33 0 0.0 0.0 0.00 0.00 0.00 82 1007.7
20260508113055 33 0 0.0 0.0 0.00 0.00 0.00 81 1007.7
20260508111548 33 0 0.0 0.0 0.00 0.00 0.00 80 1007.7
20260508110054 34 0 0.0 0.0 0.00 0.00 0.00 79 1007.7
20260508104547 35 0 0.0 0.0 0.00 0.00 0.00 79 1007.8
20260508103052 35 0 0.0 0.0 0.00 0.00 0.00 78 1007.8
20260508101541 35 0 0.0 0.0 0.00 0.00 0.00 78 1007.8
20260508100040 35 0 0.0 0.0 0.00 0.00 0.00 78 1007.8
20260508094547 35 0 0.0 1.0 0.00 0.00 0.00 80 1007.8
20260508093038 34 0 0.0 0.0 0.00 0.00 0.00 83 1007.9
20260508091552 34 0 0.0 0.0 0.00 0.00 0.00 84 1007.7
20260508090059 34 0 0.0 0.0 0.00 0.00 0.00 85 1007.8
20260508084549 35 0 0.0 0.0 0.00 0.00 0.00 85 1007.9
20260508083040 34 0 0.0 0.0 0.00 0.00 0.00 85 1007.8
20260508081537 34 0 0.0 0.0 0.00 0.00 0.00 84 1007.8
20260508080042 34 0 0.0 0.0 0.00 0.00 0.00 83 1007.9
20260508074544 35 0 0.0 0.0 0.00 0.00 0.00 82 1007.9
20260508073041 35 0 0.0 0.0 0.00 0.00 0.00 81 1008.0
20260508071547 35 0 0.0 0.0 0.00 0.00 0.00 81 1008.1
20260508070045 36 0 0.0 0.0 0.00 0.00 0.00 80 1008.1
20260508064542 36 0 0.0 0.0 0.00 0.00 0.00 79 1008.2
20260508063038 36 0 0.0 0.0 0.00 0.00 0.00 77 1008.2